(59362) = 1999 DO5

Discovered at Socorro on 1999-02-17 by LINEAR.

Orbit

Orbit type: Main Belt

Note: WebGL enabled browser required.

epoch2024-03-31.0
epoch JD2460400.5
perihelion date2020-03-08.75046
perihelion JD2458917.25046
argument of perihelion (°)294.61601
ascending node (°)211.83435
inclination (°)14.53728
eccentricity0.0471955
perihelion distance (AU)2.4855632
Tisserand w.r.t. Jupiter3.4
ΔV w.r.t. Earth (km/sec)10.9
semimajor axis (AU)2.6086813
mean anomaly (°)346.96568
mean daily motion (°/day)0.23392270
aphelion distance (AU)2.732
period (years)4.21
P-vector [x]-0.81805495
P-vector [y]0.57513972
P-vector [z]0.00063145
Q-vector [x]-0.55969331
Q-vector [y]-0.79583091
Q-vector [z]-0.23107696
absolute magnitude14.68
phase slope0.15
uncertainty0
referenceMPEC 2024-E179
observations used1856
oppositions21
arc length (days)9629
first opposition used1997
last opposition used2024
residual rms (arc-secs)0.65
perturbers coarse indicatorM-v
perturbers precise indicator003Ek
first observation date used1997-10-06.0
last observation date used2024-02-16.0
computer nameMPCLINUX
JD of orbit computation2456966.841846
perihelion JD uncertainty (days)1.9502E-04
argument of perihelion uncertainty (°)4.7124E-05
ascending node uncertainty (°)1.1713E-05
inclination uncertainty (°)4.7136E-06
eccentricity uncertainty 3.0824E-08
perihelion distance uncertainty (AU)8.2468E-08
Minimum Orbit Intersection Distances (in AU)
for orbit epoch: 2460400.5, reference: E2024-D99
Mercury2.11079
Venus1.8012
Earth1.52265
Mars0.90876
Jupiter2.28998
Saturn6.51765
Uranus15.9897
Neptune27.1627

Observations

1894 total observations over interval: 1997 10 06.46039 – 2024 02 16.871529
These data are available for download (format description).

Date (UT) J2000 RA J2000 Dec Magn Location Ref
1997 10 06.46039 02 11 34.73 +15 14 49.8 19.7 V 691 – Steward Observatory, Kitt Peak-Spacewatch MPS 79547
1997 10 06.48018 02 11 33.90 +15 14 39.5 19.6 V 691 – Steward Observatory, Kitt Peak-Spacewatch MPS 79547
1997 10 06.50430 02 11 32.90 +15 14 27.1 19.2 V 691 – Steward Observatory, Kitt Peak-Spacewatch MPS 79547
1997 10 11.34483 02 08 08.66 +14 31 06.5 18.9 V 691 – Steward Observatory, Kitt Peak-Spacewatch MPS 79547
1997 10 11.36647 02 08 07.66 +14 30 54.3 19.0 V 691 – Steward Observatory, Kitt Peak-Spacewatch MPS 79547
1997 10 11.38842 02 08 06.66 +14 30 41.8 18.8 V 691 – Steward Observatory, Kitt Peak-Spacewatch MPS 79547
1997 11 24.28694 01 37 15.55 +07 39 09.4 18.8 V 691 – Steward Observatory, Kitt Peak-Spacewatch MPS 79547
1997 11 24.29634 01 37 15.32 +07 39 05.4 18.8 V 691 – Steward Observatory, Kitt Peak-Spacewatch MPS 79547
1997 11 24.30232 01 37 15.16 +07 39 02.8 18.8 V 691 – Steward Observatory, Kitt Peak-Spacewatch MPS 79547
1997 11 24.31373 01 37 14.90 +07 38 58.2 18.8 V 691 – Steward Observatory, Kitt Peak-Spacewatch MPS 79547
1997 11 24.31984 01 37 14.75 +07 38 55.6 18.9 V 691 – Steward Observatory, Kitt Peak-Spacewatch MPS 79547
1997 11 24.32534 01 37 14.61 +07 38 53.3 18.9 V 691 – Steward Observatory, Kitt Peak-Spacewatch MPS 79547
1999 01 23.42159 10 03 46.26 -10 17 10.6 19.0   704 – Lincoln Laboratory ETS, New Mexico MPS 35494
1999 01 23.44335 10 03 45.59 -10 17 11.0 19.0   704 – Lincoln Laboratory ETS, New Mexico MPS 35494
1999 01 23.46514 10 03 44.83 -10 17 10.2 19.0   704 – Lincoln Laboratory ETS, New Mexico MPS 35494
1999 01 23.48693 10 03 44.05 -10 17 11.7 19.4   704 – Lincoln Laboratory ETS, New Mexico MPS 35494
1999 01 23.50877 10 03 43.19 -10 17 10.5 20.0   704 – Lincoln Laboratory ETS, New Mexico MPS 35494
1999 02 17.26408 09 45 08.52 -08 51 01.7 18.9   704 – Lincoln Laboratory ETS, New Mexico MPS 4213
1999 02 17.28111 09 45 07.61 -08 50 54.2 18.9   704 – Lincoln Laboratory ETS, New Mexico MPS 4213
1999 02 17.29793 09 45 06.70 -08 50 47.5 18.9   704 – Lincoln Laboratory ETS, New Mexico MPS 4213
1999 02 17.31519 09 45 05.75 -08 50 40.2 18.9   704 – Lincoln Laboratory ETS, New Mexico MPS 4213
1999 02 17.33194 09 45 04.75 -08 50 31.9 19.2   704 – Lincoln Laboratory ETS, New Mexico MPS 4213
1999 02 19.21083 09 43 31.25 -08 37 02.0 18.5   704 – Lincoln Laboratory ETS, New Mexico MPS 4213
1999 02 19.23193 09 43 30.06 -08 36 52.8 18.8   704 – Lincoln Laboratory ETS, New Mexico MPS 4213
1999 02 19.25302 09 43 29.10 -08 36 42.9 18.8   704 – Lincoln Laboratory ETS, New Mexico MPS 4213
1999 02 19.27387 09 43 27.89 -08 36 32.9 19.5   704 – Lincoln Laboratory ETS, New Mexico MPS 4213
1999 02 19.29475 09 43 26.84 -08 36 23.2 19.5   704 – Lincoln Laboratory ETS, New Mexico MPS 4213
2000 06 04.27320 17 58 07.94 -05 26 47.9 19.1   704 – Lincoln Laboratory ETS, New Mexico MPS 35494
2000 06 04.30082 17 58 06.62 -05 26 37.3 18.8   704 – Lincoln Laboratory ETS, New Mexico MPS 35494
2000 06 04.31522 17 58 05.90 -05 26 33.5 19.0   704 – Lincoln Laboratory ETS, New Mexico MPS 35494
2000 06 04.32834 17 58 05.16 -05 26 27.9 19.1   704 – Lincoln Laboratory ETS, New Mexico MPS 35494
2001 07 29.27962 00 43 35.62 +16 26 06.7 19.1 R 699 – Lowell Observatory-LONEOS MPS 35494
2001 07 29.30770 00 43 36.27 +16 26 13.7   699 – Lowell Observatory-LONEOS MPS 35494
2001 07 29.33584 00 43 36.86 +16 26 17.2   699 – Lowell Observatory-LONEOS MPS 35494
2001 07 29.36416 00 43 37.33 +16 26 22.1   699 – Lowell Observatory-LONEOS MPS 35494
2001 08 25.33939 00 44 32.11 +16 29 12.6 19.1   704 – Lincoln Laboratory ETS, New Mexico MPS 35494
2001 08 25.36505 00 44 31.64 +16 29 09.3 19.4   704 – Lincoln Laboratory ETS, New Mexico MPS 35494
2001 08 25.37777 00 44 31.44 +16 29 07.4 18.7   704 – Lincoln Laboratory ETS, New Mexico MPS 35494
2001 08 28.32960 00 43 35.91 +16 20 12.1 19.2 R 699 – Lowell Observatory-LONEOS MPS 35494
2001 08 28.35617 00 43 35.45 +16 20 06.8   699 – Lowell Observatory-LONEOS MPS 35494
2001 08 28.38282 00 43 34.79 +16 20 01.0   699 – Lowell Observatory-LONEOS MPS 35494
2001 08 28.40951 00 43 34.17 +16 19 55.7   699 – Lowell Observatory-LONEOS MPS 35494
2001 09 10.32751 00 37 19.92 +15 16 59.8 18.6   704 – Lincoln Laboratory ETS, New Mexico MPS 35494
2001 09 10.34120 00 37 19.40 +15 16 55.0 18.8   704 – Lincoln Laboratory ETS, New Mexico MPS 35494
2001 09 10.35483 00 37 18.88 +15 16 49.5 18.8   704 – Lincoln Laboratory ETS, New Mexico MPS 35494
2001 09 10.36848 00 37 18.39 +15 16 44.1 19.1   704 – Lincoln Laboratory ETS, New Mexico MPS 35494
2001 09 10.38212 00 37 17.81 +15 16 39.2 18.9   704 – Lincoln Laboratory ETS, New Mexico MPS 35494
2001 09 11.38024 00 36 40.99 +15 10 10.0 17.8 R 699 – Lowell Observatory-LONEOS MPS 35494
2001 09 11.40070 00 36 40.23 +15 10 02.3   699 – Lowell Observatory-LONEOS MPS 35494
2001 09 11.42121 00 36 39.35 +15 09 54.8   699 – Lowell Observatory-LONEOS MPS 35494
2001 09 11.44178 00 36 38.63 +15 09 45.9   699 – Lowell Observatory-LONEOS MPS 35494
2001 09 17.33544 00 32 42.83 +14 26 59.2 18.0   704 – Lincoln Laboratory ETS, New Mexico MPS 35494
2001 09 17.34984 00 32 42.18 +14 26 51.7 19.1   704 – Lincoln Laboratory ETS, New Mexico MPS 35494
2001 09 17.36392 00 32 41.56 +14 26 45.2 19.2   704 – Lincoln Laboratory ETS, New Mexico MPS 35494
2001 09 17.37776 00 32 40.97 +14 26 38.6 19.2   704 – Lincoln Laboratory ETS, New Mexico MPS 35494
2001 09 21.22423 00 29 53.62 +13 54 50.9 18.1 R 699 – Lowell Observatory-LONEOS MPS 35494
2001 09 21.24850 00 29 52.50 +13 54 38.6   699 – Lowell Observatory-LONEOS MPS 35494
2001 09 21.27262 00 29 51.29 +13 54 26.1   699 – Lowell Observatory-LONEOS MPS 35494
2001 09 21.29676 00 29 50.24 +13 54 14.1   699 – Lowell Observatory-LONEOS MPS 35494
2001 09 28.30810 00 24 28.84 +12 49 35.1 17.8   644 – Palomar Mountain/NEAT MPS 35494
2001 09 28.32865 00 24 27.85 +12 49 23.1 17.8   644 – Palomar Mountain/NEAT MPS 35494
2001 09 28.34920 00 24 26.85 +12 49 11.1 17.7   644 – Palomar Mountain/NEAT MPS 35494
2001 10 05.37329 00 19 01.60 +11 38 04.0 18.2   644 – Palomar Mountain/NEAT MPS 37463
2001 10 05.39442 00 19 00.59 +11 37 51.1 18.9   644 – Palomar Mountain/NEAT MPS 37463
2001 10 05.41559 00 18 59.60 +11 37 37.5 18.7   644 – Palomar Mountain/NEAT MPS 37463
2001 10 13.19668 00 13 19.83 +10 15 03.9 17.8 R 699 – Lowell Observatory-LONEOS MPS 37463
2001 10 13.22029 00 13 18.81 +10 14 49.5   699 – Lowell Observatory-LONEOS MPS 37463
2001 10 13.24369 00 13 17.81 +10 14 33.4   699 – Lowell Observatory-LONEOS MPS 37463
2001 10 13.26710 00 13 16.75 +10 14 19.2   699 – Lowell Observatory-LONEOS MPS 37463
2001 10 14.17608 00 12 39.78 +10 04 36.3 18.2   704 – Lincoln Laboratory ETS, New Mexico MPS 37463
2001 10 14.19180 00 12 39.13 +10 04 26.5 18.5   704 – Lincoln Laboratory ETS, New Mexico MPS 37463
2001 10 14.20753 00 12 38.49 +10 04 15.9 18.2   704 – Lincoln Laboratory ETS, New Mexico MPS 37463
2001 10 14.22329 00 12 37.80 +10 04 05.8 18.4   704 – Lincoln Laboratory ETS, New Mexico MPS 37463
2001 10 14.23906 00 12 37.12 +10 03 55.8 18.3   704 – Lincoln Laboratory ETS, New Mexico MPS 37463
2001 10 17.24079 00 10 39.55 +09 32 03.1 18.6   704 – Lincoln Laboratory ETS, New Mexico MPS 38918
2001 10 17.25694 00 10 38.90 +09 31 52.2 19.1   704 – Lincoln Laboratory ETS, New Mexico MPS 38918
2001 10 17.27292 00 10 38.29 +09 31 42.3 18.9   704 – Lincoln Laboratory ETS, New Mexico MPS 38918
2001 10 17.28889 00 10 37.64 +09 31 32.0 19.1   704 – Lincoln Laboratory ETS, New Mexico MPS 38918
2001 10 17.30523 00 10 37.02 +09 31 21.8 18.8   704 – Lincoln Laboratory ETS, New Mexico MPS 38918
2001 10 21.17222 00 08 18.88 +08 50 53.4 18.5   704 – Lincoln Laboratory ETS, New Mexico MPS 38918
2001 10 21.18840 00 08 18.35 +08 50 42.4 18.7   704 – Lincoln Laboratory ETS, New Mexico MPS 38918
2001 10 21.20442 00 08 17.79 +08 50 32.6 18.8   704 – Lincoln Laboratory ETS, New Mexico MPS 38918
2001 10 21.22121 00 08 17.18 +08 50 23.3 19.0   704 – Lincoln Laboratory ETS, New Mexico MPS 38918
2001 10 21.23810 00 08 16.59 +08 50 11.9 19.1   704 – Lincoln Laboratory ETS, New Mexico MPS 38918
2001 11 10.23272 00 01 24.11 +05 49 10.2 18.8   704 – Lincoln Laboratory ETS, New Mexico MPS 40148
